Location: Rayville
(42.4642°N, 73.5384°W)
Time: 13:30:23
(UTC+00:00)

Envisat - Visible Passes

Search period start: 13 October 2024 00:00
Search period end: 23 October 2024 00:00
Orbit: 762 x 764 km, 98.3° (Epoch: 12 October)

Date Brightness Start Highest point End Pass type
(mag) Time Alt. Az. Time Alt. Az. Time Alt. Az.
13 Oct 4.5 08:10:31 10° NNE 08:12:53 28° N 08:12:53 28° N visible
13 Oct 5.0 09:52:03 10° NW 09:53:01 11° NW 09:53:01 11° NW visible
14 Oct 5.3 07:33:14 10° NNE 07:34:49 19° NE 07:34:49 19° NE visible
14 Oct 4.6 09:12:43 10° NNW 09:14:57 20° NW 09:14:57 20° NW visible
15 Oct 6.0 06:56:41 10° NE 06:56:45 10° NE 06:56:45 10° NE visible
15 Oct 4.5 08:34:37 10° N 08:36:53 26° N 08:36:53 26° N visible
16 Oct 5.0 07:57:01 10° NNE 07:58:49 22° NNE 07:58:49 22° NNE visible
16 Oct 4.9 09:37:35 10° NNW 09:38:57 14° NW 09:38:57 14° NW visible
17 Oct 5.7 07:19:56 10° NNE 07:20:45 14° NE 07:20:45 14° NE visible
17 Oct 4.6 08:58:56 10° N 09:00:53 21° NNW 09:00:53 21° NNW visible
18 Oct 4.8 08:21:01 10° N 08:22:48 22° N 08:22:48 22° N visible
19 Oct 5.4 07:43:34 10° NNE 07:44:44 17° NNE 07:44:44 17° NNE visible
19 Oct 4.9 09:23:31 10° NNW 09:24:52 15° NNW 09:24:52 15° NNW visible
20 Oct 4.8 08:45:11 10° N 08:46:48 19° N 08:46:48 19° N visible
21 Oct 5.2 08:07:27 10° NNE 08:08:43 18° NNE 08:08:43 18° NNE visible
21 Oct 5.1 09:48:45 10° NW 09:48:51 10° NW 09:48:51 10° NW visible
22 Oct 5.8 07:30:11 10° NNE 07:30:38 12° NNE 07:30:38 12° NNE visible
22 Oct 4.9 09:09:35 10° N 09:10:46 15° NNW 09:10:46 15° NNW visible
